sat.trackr.live / text

‹ back to catalog

EXPRESS-AM8

NORAD 40895 · 2015-048A

PAYLOAD ACTIVE UNKNOWN

§ Identity

Operator
Country
CIS
Launch date
2015-09-14
Launch site
TYMSC
Launch vehicle
Mass (kg)
RCS (m²)
44.82

Purposes: comms

External: N2YO · Heavens-Above · Gunter

§ Orbital elements

Epoch: 2026-05-25T01:57:55.224288Z

Period
1,436.10 min
Inclination
0.0168°
Eccentricity
0.0000385
Mean motion
1.00271485 rev/d
Perigee alt
35,785.1 km
Apogee alt
35,788.3 km
Semi-major
42,164.8 km
B*
0.0000e+0
RAAN
288.4386°
Arg perigee
18.4396°
Mean anomaly
311.2750°
Rev number
3,911

§ Raw data

EXPRESS-AM81 40895U 15048A   26145.08188917 -.00000114  00000+0  00000+0 0  99992 40895   0.0168 288.4386 0000385  18.4396 311.2750  1.00271485 39110

JSON: /api/v1/satellites/40895 · /tle

For live sub-satellite position, see the globe view (requires WebGL).

§ Visibility from observer

Set your observer location to see the next 7 days of passes ≥ 10°. The values pass through the URL so the page stays shareable.

No JS? Fill the form by hand. The geolocation button needs JavaScript.